• In Germany
  • List of Countries
  • For 7 days
  • Water Temperature
  • Satellite Maps
  • Weather Map
  • Weather Widgets
  • user-avatar
    Login

    Hourly Weather Abovyan

    Today, 26 June, Monday

    Time Temperature Precipitation Wind Pressure Humidity
    00:00 +18°C° 0.1 mm 2 mps 672 mmHg 75%
    01:00 +17°C° 0 mm 2 mps 672 mmHg 76%
    02:00 +16°C° 0 mm 2 mps 672 mmHg 76%
    03:00 +16°C° 0 mm 2 mps 671 mmHg 78%
    04:00 +17°C° 0 mm 2 mps 672 mmHg 75%
    05:00 +19°C° 0 mm 1 mps 672 mmHg 73%
    06:00 +20°C° 0 mm 1 mps 673 mmHg 70%
    07:00 +22°C° 0 mm 1 mps 673 mmHg 61%
    08:00 +25°C° 0 mm 1 mps 674 mmHg 52%
    09:00 +28°C° 0 mm 1 mps 674 mmHg 42%
    10:00 +29°C° 0 mm 1 mps 674 mmHg 39%
    11:00 +30°C° 0 mm 1 mps 674 mmHg 35%
    12:00 +31°C° 0 mm 2 mps 674 mmHg 32%
    13:00 +32°C° 0 mm 2 mps 674 mmHg 32%
    14:00 +32°C° 0 mm 2 mps 673 mmHg 31%
    15:00 +32°C° 0 mm 2 mps 673 mmHg 31%
    16:00 +31°C° 0 mm 2 mps 673 mmHg 34%
    17:00 +31°C° 0 mm 2 mps 673 mmHg 37%
    18:00 +30°C° 0 mm 2 mps 673 mmHg 41%
    19:00 +27°C° 0 mm 2 mps 673 mmHg 50%
    20:00 +25°C° 0 mm 2 mps 673 mmHg 60%
    21:00 +21°C° 0 mm 2 mps 673 mmHg 70%
    22:00 +21°C° 0.1 mm 2 mps 673 mmHg 73%
    23:00 +20°C° 0.1 mm 2 mps 673 mmHg 76%

    Tomorrow, 27 June, Tuesday

    Time Temperature Precipitation Wind Pressure Humidity
    00:00 +19°C° 0.1 mm 2 mps 673 mmHg 79%
    01:00 +19°C° 0 mm 2 mps 673 mmHg 80%
    02:00 +19°C° 0 mm 1 mps 673 mmHg 81%
    03:00 +19°C° 0 mm 1 mps 673 mmHg 82%
    04:00 +20°C° 0 mm 1 mps 673 mmHg 79%
    05:00 +21°C° 0 mm 1 mps 673 mmHg 75%
    06:00 +22°C° 0 mm 1 mps 673 mmHg 72%
    07:00 +24°C° 0 mm 1 mps 673 mmHg 61%
    08:00 +27°C° 0 mm 1 mps 674 mmHg 51%
    09:00 +29°C° 0 mm 2 mps 674 mmHg 40%
    10:00 +31°C° 0 mm 2 mps 674 mmHg 36%
    11:00 +32°C° 0 mm 2 mps 673 mmHg 31%
    12:00 +35°C° 0 mm 2 mps 673 mmHg 27%
    13:00 +35°C° 0 mm 2 mps 673 mmHg 26%
    14:00 +36°C° 0 mm 2 mps 673 mmHg 25%
    15:00 +36°C° 0 mm 2 mps 672 mmHg 24%
    16:00 +36°C° 0.1 mm 2 mps 672 mmHg 29%
    17:00 +35°C° 0.1 mm 2 mps 672 mmHg 34%
    18:00 +33°C° 0.1 mm 1 mps 671 mmHg 40%
    19:00 +30°C° 0.1 mm 2 mps 671 mmHg 47%
    20:00 +27°C° 0.1 mm 2 mps 671 mmHg 54%
    21:00 +24°C° 0.1 mm 2 mps 671 mmHg 61%
    22:00 +24°C° 0 mm 2 mps 671 mmHg 65%
    23:00 +23°C° 0 mm 2 mps 671 mmHg 68%

    Day after tomorrow, 28 June, Wednesday

    Time Temperature Precipitation Wind Pressure Humidity
    00:00 +21°C° 0 mm 2 mps 671 mmHg 72%
    01:00 +21°C° 0 mm 2 mps 671 mmHg 73%
    02:00 +21°C° 0 mm 2 mps 670 mmHg 74%
    03:00 +20°C° 0 mm 2 mps 670 mmHg 75%
    04:00 +22°C° 0 mm 1 mps 671 mmHg 73%
    05:00 +23°C° 0 mm 1 mps 671 mmHg 70%
    06:00 +23°C° 0 mm 1 mps 671 mmHg 68%
    07:00 +26°C° 0 mm 1 mps 671 mmHg 58%
    08:00 +29°C° 0 mm 1 mps 672 mmHg 47%
    09:00 +32°C° 0 mm 1 mps 672 mmHg 37%
    10:00 +33°C° 0 mm 1 mps 672 mmHg 32%
    11:00 +35°C° 0 mm 1 mps 672 mmHg 28%
    12:00 +36°C° 0 mm 1 mps 672 mmHg 23%
    13:00 +36°C° 0.1 mm 1 mps 671 mmHg 23%
    14:00 +37°C° 0.1 mm 1 mps 671 mmHg 23%
    15:00 +37°C° 0.1 mm 1 mps 671 mmHg 23%
    16:00 +36°C° 0.2 mm 2 mps 670 mmHg 29%
    17:00 +35°C° 0.2 mm 2 mps 670 mmHg 34%
    18:00 +34°C° 0.2 mm 2 mps 670 mmHg 40%
    19:00 +30°C° 0.2 mm 2 mps 670 mmHg 47%
    20:00 +28°C° 0.2 mm 3 mps 670 mmHg 55%
    21:00 +25°C° 0.2 mm 3 mps 670 mmHg 63%
    22:00 +24°C° 0.1 mm 2 mps 670 mmHg 65%
    23:00 +23°C° 0.1 mm 2 mps 670 mmHg 67%

    29 June, Thursday

    Time Temperature Precipitation Wind Pressure Humidity
    00:00 +23°C° 0.1 mm 2 mps 670 mmHg 69%
    01:00 +21°C° 0.1 mm 2 mps 669 mmHg 70%
    02:00 +21°C° 0.1 mm 2 mps 669 mmHg 72%
    03:00 +20°C° 0.1 mm 2 mps 669 mmHg 73%
    04:00 +21°C° 0.1 mm 2 mps 669 mmHg 72%
    05:00 +21°C° 0.1 mm 2 mps 670 mmHg 70%
    06:00 +23°C° 0.1 mm 1 mps 670 mmHg 69%
    07:00 +26°C° 0.2 mm 1 mps 670 mmHg 60%
    08:00 +28°C° 0.2 mm 1 mps 671 mmHg 52%
    09:00 +30°C° 0.2 mm 1 mps 671 mmHg 43%
    10:00 +32°C° 0.2 mm 1 mps 671 mmHg 39%
    11:00 +34°C° 0.2 mm 1 mps 671 mmHg 35%
    12:00 +35°C° 0.2 mm 1 mps 671 mmHg 30%
    13:00 +35°C° 0.2 mm 1 mps 671 mmHg 30%
    14:00 +35°C° 0.2 mm 1 mps 670 mmHg 29%
    15:00 +35°C° 0.2 mm 1 mps 670 mmHg 28%
    16:00 +35°C° 0.4 mm 2 mps 670 mmHg 33%
    17:00 +34°C° 0.4 mm 2 mps 669 mmHg 38%
    18:00 +31°C° 0.4 mm 3 mps 669 mmHg 43%
    19:00 +29°C° 0.4 mm 3 mps 669 mmHg 50%
    20:00 +27°C° 0.4 mm 3 mps 669 mmHg 57%
    21:00 +24°C° 0.4 mm 3 mps 670 mmHg 65%
    22:00 +23°C° 0.2 mm 2 mps 670 mmHg 67%
    23:00 +21°C° 0.2 mm 2 mps 670 mmHg 69%

    30 June, Friday

    Time Temperature Precipitation Wind Pressure Humidity
    00:00 +21°C° 0.2 mm 2 mps 670 mmHg 71%
    01:00 +20°C° 0.2 mm 2 mps 669 mmHg 72%
    02:00 +20°C° 0.2 mm 2 mps 669 mmHg 73%
    03:00 +19°C° 0.2 mm 2 mps 669 mmHg 74%
    04:00 +20°C° 0.2 mm 2 mps 670 mmHg 71%
    05:00 +20°C° 0.2 mm 2 mps 670 mmHg 69%
    06:00 +21°C° 0.2 mm 2 mps 670 mmHg 66%
    07:00 +24°C° 0.1 mm 2 mps 670 mmHg 58%
    08:00 +26°C° 0.1 mm 2 mps 671 mmHg 50%
    09:00 +28°C° 0.1 mm 2 mps 671 mmHg 42%
    10:00 +29°C° 0.1 mm 2 mps 671 mmHg 39%
    11:00 +31°C° 0.1 mm 2 mps 671 mmHg 35%
    12:00 +32°C° 0.1 mm 2 mps 671 mmHg 32%
    13:00 +32°C° 0.2 mm 2 mps 671 mmHg 32%
    14:00 +32°C° 0.2 mm 2 mps 671 mmHg 32%
    15:00 +34°C° 0.2 mm 3 mps 670 mmHg 32%
    16:00 +31°C° 0.4 mm 3 mps 670 mmHg 35%
    17:00 +30°C° 0.4 mm 4 mps 670 mmHg 39%
    18:00 +29°C° 0.4 mm 4 mps 670 mmHg 43%
    19:00 +26°C° 0.2 mm 4 mps 670 mmHg 48%
    20:00 +24°C° 0.2 mm 3 mps 670 mmHg 53%
    21:00 +21°C° 0.2 mm 2 mps 671 mmHg 59%
    22:00 +20°C° 0.1 mm 2 mps 671 mmHg 59%
    23:00 +20°C° 0.1 mm 2 mps 671 mmHg 59%

    1 July, Saturday

    Time Temperature Precipitation Wind Pressure Humidity
    00:00 +19°C° 0.1 mm 2 mps 671 mmHg 59%
    01:00 +19°C° 0.1 mm 2 mps 671 mmHg 59%
    02:00 +18°C° 0.1 mm 2 mps 671 mmHg 59%
    03:00 +18°C° 0.1 mm 2 mps 671 mmHg 58%
    04:00 +18°C° 0 mm 2 mps 671 mmHg 57%
    05:00 +19°C° 0 mm 2 mps 671 mmHg 56%
    06:00 +19°C° 0 mm 2 mps 672 mmHg 55%
    07:00 +23°C° 0 mm 2 mps 672 mmHg 48%
    08:00 +25°C° 0 mm 2 mps 672 mmHg 40%
    09:00 +27°C° 0 mm 1 mps 673 mmHg 33%
    10:00 +29°C° 0 mm 1 mps 673 mmHg 30%
    11:00 +31°C° 0 mm 2 mps 673 mmHg 27%
    12:00 +32°C° 0 mm 2 mps 673 mmHg 25%
    13:00 +34°C° 0 mm 2 mps 673 mmHg 25%
    14:00 +34°C° 0 mm 2 mps 672 mmHg 25%
    15:00 +34°C° 0 mm 2 mps 672 mmHg 26%
    16:00 +32°C° 0.1 mm 2 mps 672 mmHg 29%
    17:00 +31°C° 0.1 mm 3 mps 672 mmHg 32%
    18:00 +30°C° 0.1 mm 3 mps 672 mmHg 35%
    19:00 +28°C° 0.1 mm 3 mps 672 mmHg 42%
    20:00 +25°C° 0.1 mm 3 mps 672 mmHg 50%
    21:00 +21°C° 0.1 mm 2 mps 672 mmHg 57%
    22:00 +21°C° 0.1 mm 2 mps 672 mmHg 59%
    23:00 +20°C° 0.1 mm 2 mps 672 mmHg 60%
    Show more